Terminal Aerodrome Forecast
Issued by NWS Cleveland, OH

Home | Current Version | Previous Version | Text Only | Print | Product List | Glossary Off
Versions: 1 2 3 4 5 6 7 8 9 10 11 12 13 14 15 16 17 18

526
FTUS41 KCLE 220905 AAA
TAFCAK
TAF AMD
KCAK 220905Z 2209/2306 32010KT P6SM VCSH OVC035
      TEMPO 2209/2211 -SN OVC020
     FM221100 33010KT P6SM BKN035
     FM221500 32010KT P6SM SCT035
     FM222000 VRB06KT P6SM SCT250=

USA.gov is the U.S. government's official web portal to all federal, state and local government web resources and services.